Back to catalog

CZ-6A DEB

AlivePO
NORAD 60798·DEBRIS·🇨🇳 China

Launched Aug 6, 2024 from Taiyuan Satellite Launch Center

Loading…

Next Passes (next 24 hours)

TLE

FreshSource: Space-Track

Epoch: Sep 13, 2026, 13:28 UTC

1 60798U 24140FZ  26256.56161812  .00000168  00000-0  81347-4 0  9994
2 60798  89.0441 270.1075 0073477 278.6894  80.5974 14.12807200107659

Track CZ-6A DEB in real time with AllMySat

Download on the App Store